| time (UTC) | temp F | wind direction | speed MPH | gust MPH | rain 1hr in | rain 24hr in | rain mn in | humidity % | barometer mb |
| 20260506193327 | 70 | 231 | 3.0 | 6.0 | 0.00 | 0.00 | 0.00 | 43 | 1017.7 |
| 20260506192819 | 69 | 323 | 4.0 | 7.0 | 0.00 | 0.00 | 0.00 | 43 | 1017.7 |
| 20260506192330 | 69 | 295 | 3.0 | 6.0 | 0.00 | 0.00 | 0.00 | 44 | 1017.7 |
| 20260506191820 | 68 | 41 | 2.0 | 8.0 | 0.00 | 0.00 | 0.00 | 45 | 1017.9 |
| 20260506191311 | 68 | 3 | 2.0 | 8.0 | 0.00 | 0.00 | 0.00 | 46 | 1017.9 |
| 20260506190823 | 68 | 269 | 2.0 | 7.0 | 0.00 | 0.00 | 0.00 | 46 | 1018.0 |
| 20260506190313 | 68 | 105 | 2.0 | 7.0 | 0.00 | 0.00 | 0.00 | 45 | 1018.0 |
| 20260506185845 | 68 | 339 | 1.0 | 4.0 | 0.00 | 0.00 | 0.00 | 46 | 1018.0 |
| 20260506185319 | 67 | 51 | 1.0 | 6.0 | 0.00 | 0.00 | 0.00 | 48 | 1018.1 |
| 20260506184811 | 67 | 311 | 2.0 | 6.0 | 0.00 | 0.00 | 0.00 | 47 | 1018.1 |
| 20260506184320 | 67 | 255 | 1.0 | 5.0 | 0.00 | 0.00 | 0.00 | 47 | 1018.2 |
| 20260506183832 | 67 | 300 | 2.0 | 5.0 | 0.00 | 0.00 | 0.00 | 47 | 1018.2 |
| 20260506183323 | 67 | 261 | 1.0 | 5.0 | 0.00 | 0.00 | 0.00 | 49 | 1018.3 |
| 20260506182815 | 66 | 89 | 1.0 | 5.0 | 0.00 | 0.00 | 0.00 | 50 | 1018.3 |
| 20260506182326 | 65 | 269 | 1.0 | 5.0 | 0.00 | 0.00 | 0.00 | 49 | 1018.3 |
| 20260506181838 | 66 | 311 | 2.0 | 5.0 | 0.00 | 0.00 | 0.00 | 50 | 1018.4 |
| 20260506181328 | 65 | 241 | 0.0 | 6.0 | 0.00 | 0.00 | 0.00 | 50 | 1018.5 |
| 20260506180819 | 65 | 285 | 0.0 | 5.0 | 0.00 | 0.00 | 0.00 | 51 | 1018.5 |
| 20260506180313 | 64 | 56 | 0.0 | 5.0 | 0.00 | 0.00 | 0.00 | 53 | 1018.5 |
| 20260506175825 | 64 | 264 | 1.0 | 5.0 | 0.00 | 0.00 | 0.00 | 52 | 1018.5 |
| 20260506175317 | 64 | 308 | 3.0 | 5.0 | 0.00 | 0.00 | 0.00 | 53 | 1018.6 |
| 20260506174828 | 63 | 308 | 3.0 | 5.0 | 0.00 | 0.00 | 0.00 | 53 | 1018.6 |
| 20260506174318 | 63 | 110 | 1.0 | 6.0 | 0.00 | 0.00 | 0.00 | 54 | 1018.6 |
| 20260506173830 | 63 | 304 | 2.0 | 7.0 | 0.00 | 0.00 | 0.00 | 54 | 1018.6 |
| 20260506173321 | 63 | 306 | 3.0 | 7.0 | 0.00 | 0.00 | 0.00 | 55 | 1018.6 |
| 20260506172812 | 62 | 32 | 1.0 | 6.0 | 0.00 | 0.00 | 0.00 | 55 | 1018.7 |
| 20260506172324 | 62 | 323 | 2.0 | 6.0 | 0.00 | 0.00 | 0.00 | 57 | 1018.7 |
| 20260506171818 | 62 | 309 | 1.0 | 6.0 | 0.00 | 0.00 | 0.00 | 57 | 1018.6 |
| 20260506171328 | 62 | 36 | 2.0 | 7.0 | 0.00 | 0.00 | 0.00 | 58 | 1018.6 |
| 20260506170840 | 61 | 316 | 2.0 | 7.0 | 0.00 | 0.00 | 0.00 | 59 | 1018.5 |
| 20260506170331 | 61 | 321 | 3.0 | 5.0 | 0.00 | 0.00 | 0.00 | 57 | 1018.6 |
| 20260506165821 | 61 | 299 | 2.0 | 6.0 | 0.00 | 0.01 | 0.00 | 59 | 1018.5 |
| 20260506165312 | 60 | 354 | 0.0 | 5.0 | 0.00 | 0.01 | 0.00 | 62 | 1018.5 |
| 20260506164843 | 60 | 316 | 2.0 | 5.0 | 0.00 | 0.01 | 0.00 | 61 | 1018.6 |
| 20260506164314 | 60 | 305 | 2.0 | 5.0 | 0.00 | 0.01 | 0.00 | 61 | 1018.6 |
| 20260506163826 | 60 | 237 | 1.0 | 5.0 | 0.00 | 0.01 | 0.00 | 61 | 1018.6 |
| 20260506163316 | 60 | 307 | 1.0 | 5.0 | 0.00 | 0.01 | 0.00 | 61 | 1018.5 |
| 20260506162811 | 60 | 54 | 0.0 | 4.0 | 0.00 | 0.01 | 0.00 | 63 | 1018.6 |
| 20260506162324 | 59 | 309 | 2.0 | 4.0 | 0.00 | 0.01 | 0.00 | 63 | 1018.6 |
| 20260506161835 | 59 | 42 | 1.0 | 3.0 | 0.00 | 0.01 | 0.00 | 64 | 1018.5 |
| 20260506161345 | 59 | 309 | 0.0 | 2.0 | 0.00 | 0.01 | 0.00 | 65 | 1018.5 |
| 20260506160815 | 58 | 309 | 1.0 | 3.0 | 0.00 | 0.01 | 0.00 | 64 | 1018.4 |
| 20260506160327 | 58 | 302 | 1.0 | 3.0 | 0.00 | 0.01 | 0.00 | 64 | 1018.5 |
| 20260506155819 | 58 | 309 | 0.0 | 0.0 | 0.00 | 0.03 | 0.00 | 64 | 1018.5 |
| 20260506155311 | 57 | 308 | 0.0 | 0.0 | 0.00 | 0.03 | 0.00 | 66 | 1018.5 |
| 20260506154822 | 57 | 79 | 0.0 | 0.0 | 0.00 | 0.03 | 0.00 | 66 | 1018.5 |
| 20260506154317 | 56 | 6 | 0.0 | 0.0 | 0.00 | 0.03 | 0.00 | 68 | 1018.5 |
| 20260506153829 | 56 | 340 | 0.0 | 0.0 | 0.00 | 0.03 | 0.00 | 68 | 1018.5 |
| 20260506153320 | 56 | 274 | 0.0 | 0.0 | 0.00 | 0.03 | 0.00 | 70 | 1018.5 |
| 20260506152831 | 56 | 179 | 0.0 | 0.0 | 0.00 | 0.03 | 0.00 | 71 | 1018.5 |
| 20260506152321 | 55 | 279 | 0.0 | 0.0 | 0.00 | 0.03 | 0.00 | 74 | 1018.5 |
| 20260506151834 | 54 | 278 | 0.0 | 0.0 | 0.00 | 0.03 | 0.00 | 74 | 1018.5 |
| 20260506151325 | 54 | 312 | 0.0 | 0.0 | 0.00 | 0.03 | 0.00 | 74 | 1018.5 |
| 20260506150815 | 54 | 317 | 0.0 | 0.0 | 0.00 | 0.03 | 0.00 | 73 | 1018.5 |
| 20260506150325 | 54 | 120 | 0.0 | 0.0 | 0.00 | 0.03 | 0.00 | 74 | 1018.5 |
| 20260506145816 | 54 | 120 | 0.0 | 0.0 | 0.00 | 0.06 | 0.00 | 75 | 1018.5 |
| 20260506145311 | 54 | 120 | 0.0 | 0.0 | 0.00 | 0.06 | 0.00 | 76 | 1018.5 |
| 20260506144822 | 53 | 120 | 0.0 | 0.0 | 0.00 | 0.06 | 0.00 | 78 | 1018.6 |
| 20260506144312 | 53 | 120 | 0.0 | 0.0 | 0.00 | 0.06 | 0.00 | 79 | 1018.6 |
| 20260506143823 | 53 | 120 | 0.0 | 0.0 | 0.00 | 0.06 | 0.00 | 83 | 1018.5 |
| 20260506143315 | 52 | 120 | 0.0 | 0.0 | 0.00 | 0.06 | 0.00 | 86 | 1018.5 |
| 20260506142825 | 51 | 120 | 0.0 | 0.0 | 0.00 | 0.06 | 0.00 | 90 | 1018.5 |
| 20260506142315 | 49 | 120 | 0.0 | 0.0 | 0.00 | 0.06 | 0.00 | 91 | 1018.5 |
| 20260506141827 | 48 | 120 | 0.0 | 0.0 | 0.00 | 0.06 | 0.00 | 92 | 1018.4 |
| 20260506141338 | 47 | 120 | 0.0 | 0.0 | 0.00 | 0.06 | 0.00 | 93 | 1018.4 |
| 20260506140812 | 46 | 120 | 0.0 | 0.0 | 0.00 | 0.06 | 0.00 | 93 | 1018.3 |
| 20260506140343 | 45 | 120 | 0.0 | 0.0 | 0.00 | 0.06 | 0.00 | 92 | 1018.3 |
| 20260506135831 | 45 | 120 | 0.0 | 0.0 | 0.00 | 0.07 | 0.00 | 92 | 1018.2 |
| 20260506135322 | 45 | 120 | 0.0 | 0.0 | 0.00 | 0.07 | 0.00 | 92 | 1018.2 |
| 20260506134812 | 45 | 120 | 0.0 | 0.0 | 0.00 | 0.07 | 0.00 | 92 | 1018.1 |
| 20260506134324 | 44 | 120 | 0.0 | 0.0 | 0.00 | 0.07 | 0.00 | 92 | 1018.2 |
| 20260506133814 | 44 | 120 | 0.0 | 0.0 | 0.00 | 0.07 | 0.00 | 92 | 1018.1 |
| 20260506133325 | 44 | 120 | 0.0 | 0.0 | 0.00 | 0.07 | 0.00 | 92 | 1018.2 |
| 20260506132816 | 44 | 120 | 0.0 | 0.0 | 0.00 | 0.07 | 0.00 | 92 | 1018.2 |
| 20260506132328 | 44 | 120 | 0.0 | 0.0 | 0.00 | 0.07 | 0.00 | 92 | 1018.3 |
| 20260506131820 | 44 | 120 | 0.0 | 0.0 | 0.00 | 0.07 | 0.00 | 92 | 1018.2 |
| 20260506131331 | 44 | 120 | 0.0 | 0.0 | 0.00 | 0.07 | 0.00 | 92 | 1018.0 |
| 20260506130821 | 44 | 120 | 0.0 | 0.0 | 0.00 | 0.07 | 0.00 | 92 | 1018.1 |
| 20260506130316 | 44 | 120 | 0.0 | 0.0 | 0.00 | 0.07 | 0.00 | 91 | 1018.1 |
| 20260506125828 | 44 | 120 | 0.0 | 0.0 | 0.00 | 0.09 | 0.00 | 91 | 1018.0 |
| 20260506125320 | 44 | 120 | 0.0 | 0.0 | 0.00 | 0.09 | 0.00 | 91 | 1018.0 |
| 20260506124812 | 44 | 120 | 0.0 | 0.0 | 0.00 | 0.09 | 0.00 | 91 | 1018.0 |
| 20260506124323 | 44 | 120 | 0.0 | 0.0 | 0.00 | 0.09 | 0.00 | 91 | 1018.0 |
| 20260506123834 | 44 | 120 | 0.0 | 0.0 | 0.00 | 0.09 | 0.00 | 91 | 1017.9 |
| 20260506123343 | 44 | 120 | 0.0 | 0.0 | 0.00 | 0.09 | 0.00 | 91 | 1017.7 |
| 20260506122813 | 44 | 120 | 0.0 | 0.0 | 0.00 | 0.09 | 0.00 | 90 | 1017.9 |
| 20260506122345 | 45 | 119 | 0.0 | 0.0 | 0.00 | 0.09 | 0.00 | 91 | 1017.8 |
| 20260506121814 | 45 | 120 | 0.0 | 0.0 | 0.00 | 0.09 | 0.00 | 91 | 1017.6 |
| 20260506121330 | 45 | 120 | 0.0 | 0.0 | 0.00 | 0.09 | 0.00 | 91 | 1017.7 |
| 20260506120820 | 45 | 119 | 0.0 | 0.0 | 0.00 | 0.09 | 0.00 | 91 | 1017.6 |
| 20260506120311 | 45 | 120 | 0.0 | 0.0 | 0.00 | 0.09 | 0.00 | 90 | 1017.6 |
| 20260506115822 | 45 | 120 | 0.0 | 0.0 | 0.00 | 0.10 | 0.00 | 90 | 1017.6 |
| 20260506115313 | 45 | 120 | 0.0 | 0.0 | 0.00 | 0.10 | 0.00 | 90 | 1017.7 |
| 20260506114843 | 45 | 120 | 0.0 | 0.0 | 0.00 | 0.10 | 0.00 | 91 | 1017.6 |
| 20260506114312 | 45 | 120 | 0.0 | 0.0 | 0.00 | 0.10 | 0.00 | 90 | 1017.6 |
| 20260506113843 | 45 | 120 | 0.0 | 0.0 | 0.00 | 0.10 | 0.00 | 90 | 1017.5 |
| 20260506113333 | 45 | 120 | 0.0 | 0.0 | 0.00 | 0.10 | 0.00 | 90 | 1017.6 |
| 20260506112844 | 45 | 120 | 0.0 | 0.0 | 0.00 | 0.10 | 0.00 | 90 | 1017.7 |
| 20260506112333 | 46 | 120 | 0.0 | 0.0 | 0.00 | 0.10 | 0.00 | 90 | 1017.6 |
| 20260506111824 | 46 | 120 | 0.0 | 0.0 | 0.00 | 0.10 | 0.00 | 90 | 1017.6 |
| 20260506111315 | 46 | 120 | 0.0 | 0.0 | 0.00 | 0.10 | 0.00 | 90 | 1017.5 |
| 20260506110830 | 46 | 120 | 0.0 | 0.0 | 0.00 | 0.10 | 0.00 | 90 | 1017.5 |
| 20260506110342 | 46 | 220 | 0.0 | 0.0 | 0.00 | 0.10 | 0.00 | 89 | 1017.5 |
| 20260506105813 | 46 | 220 | 0.0 | 0.0 | 0.00 | 0.10 | 0.00 | 90 | 1017.5 |
| 20260506105324 | 46 | 220 | 0.0 | 0.0 | 0.00 | 0.10 | 0.00 | 90 | 1017.5 |
| 20260506104814 | 46 | 220 | 0.0 | 0.0 | 0.00 | 0.10 | 0.00 | 89 | 1017.4 |
| 20260506104325 | 46 | 220 | 0.0 | 0.0 | 0.00 | 0.10 | 0.00 | 89 | 1017.6 |
| 20260506103816 | 46 | 220 | 0.0 | 0.0 | 0.00 | 0.10 | 0.00 | 89 | 1017.4 |
| 20260506103327 | 47 | 220 | 0.0 | 0.0 | 0.00 | 0.10 | 0.00 | 89 | 1017.4 |
| 20260506102839 | 47 | 220 | 0.0 | 0.0 | 0.00 | 0.10 | 0.00 | 89 | 1017.5 |
| 20260506102349 | 47 | 220 | 0.0 | 0.0 | 0.00 | 0.10 | 0.00 | 89 | 1017.4 |
| 20260506101818 | 47 | 220 | 0.0 | 0.0 | 0.00 | 0.10 | 0.00 | 88 | 1017.4 |
| 20260506101313 | 48 | 220 | 0.0 | 0.0 | 0.00 | 0.10 | 0.00 | 88 | 1017.5 |
| 20260506100844 | 48 | 220 | 0.0 | 0.0 | 0.00 | 0.10 | 0.00 | 89 | 1017.4 |
| 20260506100313 | 48 | 220 | 0.0 | 0.0 | 0.00 | 0.10 | 0.00 | 89 | 1017.3 |
| 20260506095823 | 48 | 220 | 0.0 | 0.0 | 0.00 | 0.11 | 0.00 | 88 | 1017.4 |
| 20260506095314 | 48 | 220 | 0.0 | 0.0 | 0.00 | 0.11 | 0.00 | 88 | 1017.4 |
| 20260506094846 | 48 | 220 | 0.0 | 0.0 | 0.00 | 0.11 | 0.00 | 88 | 1017.4 |
| 20260506094316 | 49 | 220 | 0.0 | 0.0 | 0.00 | 0.11 | 0.00 | 87 | 1017.4 |
| 20260506093849 | 49 | 220 | 0.0 | 0.0 | 0.00 | 0.11 | 0.00 | 87 | 1017.4 |
| 20260506093319 | 49 | 220 | 0.0 | 0.0 | 0.00 | 0.11 | 0.00 | 87 | 1017.4 |
| 20260506092830 | 49 | 220 | 0.0 | 0.0 | 0.00 | 0.11 | 0.00 | 87 | 1017.5 |
| 20260506092324 | 49 | 220 | 0.0 | 0.0 | 0.00 | 0.11 | 0.00 | 87 | 1017.5 |
| 20260506091815 | 49 | 220 | 0.0 | 0.0 | 0.00 | 0.11 | 0.00 | 87 | 1017.5 |
| 20260506091346 | 49 | 220 | 0.0 | 0.0 | 0.00 | 0.11 | 0.00 | 86 | 1017.6 |
| 20260506090815 | 49 | 220 | 0.0 | 0.0 | 0.00 | 0.11 | 0.00 | 86 | 1017.6 |
| 20260506090327 | 50 | 220 | 0.0 | 0.0 | 0.00 | 0.11 | 0.00 | 85 | 1017.6 |
| 20260506085817 | 50 | 220 | 0.0 | 0.0 | 0.00 | 0.14 | 0.00 | 85 | 1017.7 |
| 20260506085329 | 50 | 220 | 0.0 | 0.0 | 0.00 | 0.14 | 0.00 | 84 | 1017.8 |
| 20260506084819 | 50 | 220 | 0.0 | 0.0 | 0.00 | 0.14 | 0.00 | 84 | 1017.9 |
| 20260506084352 | 50 | 220 | 0.0 | 0.0 | 0.00 | 0.14 | 0.00 | 83 | 1017.7 |
| 20260506083821 | 50 | 220 | 0.0 | 0.0 | 0.00 | 0.14 | 0.00 | 82 | 1017.9 |
| 20260506083316 | 51 | 220 | 0.0 | 0.0 | 0.00 | 0.14 | 0.00 | 82 | 1018.0 |
| 20260506082827 | 51 | 220 | 0.0 | 0.0 | 0.00 | 0.14 | 0.00 | 82 | 1018.0 |
| 20260506082319 | 51 | 220 | 0.0 | 0.0 | 0.00 | 0.14 | 0.00 | 81 | 1018.0 |
| 20260506081851 | 52 | 220 | 0.0 | 0.0 | 0.00 | 0.14 | 0.00 | 81 | 1018.0 |
| 20260506081322 | 52 | 220 | 0.0 | 0.0 | 0.00 | 0.14 | 0.00 | 79 | 1018.0 |
| 20260506080812 | 52 | 220 | 0.0 | 0.0 | 0.00 | 0.14 | 0.00 | 79 | 1018.1 |
| 20260506080324 | 52 | 220 | 0.0 | 0.0 | 0.00 | 0.14 | 0.00 | 79 | 1018.1 |
| 20260506073316 | 53 | 220 | 0.0 | 0.0 | 0.00 | 0.21 | 0.00 | 78 | 1018.3 |
| 20260506072828 | 53 | 220 | 0.0 | 0.0 | 0.00 | 0.21 | 0.00 | 77 | 1018.3 |
| 20260506072319 | 53 | 220 | 0.0 | 0.0 | 0.00 | 0.21 | 0.00 | 77 | 1018.3 |
| 20260506071829 | 53 | 220 | 0.0 | 0.0 | 0.00 | 0.21 | 0.00 | 77 | 1018.2 |
| 20260506071320 | 53 | 220 | 0.0 | 0.0 | 0.00 | 0.21 | 0.00 | 77 | 1018.2 |
| 20260506070831 | 53 | 220 | 0.0 | 0.0 | 0.00 | 0.21 | 0.00 | 76 | 1018.2 |
| 20260506070327 | 53 | 220 | 0.0 | 0.0 | 0.00 | 0.21 | 0.00 | 76 | 1018.2 |
| 20260506062318 | 53 | 242 | 0.0 | 0.0 | 0.00 | 0.21 | 0.21 | 73 | 1017.8 |
| 20260506061829 | 53 | 224 | 0.0 | 0.0 | 0.00 | 0.21 | 0.21 | 73 | 1017.9 |
| 20260506061320 | 53 | 212 | 0.0 | 0.0 | 0.00 | 0.21 | 0.21 | 74 | 1017.9 |
| 20260506060812 | 53 | 212 | 0.0 | 0.0 | 0.00 | 0.21 | 0.21 | 74 | 1017.8 |
| 20260506060323 | 53 | 212 | 0.0 | 0.0 | 0.00 | 0.21 | 0.21 | 75 | 1017.8 |
| 20260506051320 | 55 | 217 | 1.0 | 2.0 | 0.00 | 0.21 | 0.21 | 74 | 1017.2 |
| 20260506050851 | 55 | 234 | 0.0 | 2.0 | 0.00 | 0.21 | 0.21 | 74 | 1017.2 |
| 20260506050320 | 55 | 233 | 0.0 | 3.0 | 0.00 | 0.21 | 0.21 | 73 | 1017.2 |
| 20260506044840 | 55 | 229 | 0.0 | 3.0 | 0.00 | 0.21 | 0.21 | 72 | 1017.1 |
| 20260506044331 | 55 | 240 | 0.0 | 2.0 | 0.00 | 0.21 | 0.21 | 72 | 1016.9 |
| 20260506043823 | 55 | 224 | 0.0 | 2.0 | 0.00 | 0.21 | 0.21 | 72 | 1016.9 |
| 20260506043335 | 55 | 206 | 0.0 | 2.0 | 0.00 | 0.21 | 0.21 | 71 | 1016.9 |
| 20260506042824 | 55 | 217 | 0.0 | 1.0 | 0.00 | 0.21 | 0.21 | 71 | 1016.8 |
| 20260506042315 | 55 | 202 | 0.0 | 1.0 | 0.00 | 0.21 | 0.21 | 70 | 1016.8 |
| 20260506041827 | 55 | 228 | 0.0 | 3.0 | 0.00 | 0.21 | 0.21 | 70 | 1016.6 |
| 20260506041318 | 56 | 228 | 1.0 | 3.0 | 0.00 | 0.21 | 0.21 | 70 | 1016.5 |
| 20260506040851 | 56 | 219 | 1.0 | 4.0 | 0.00 | 0.21 | 0.21 | 70 | 1016.5 |
| 20260506040320 | 56 | 224 | 2.0 | 4.0 | 0.00 | 0.21 | 0.21 | 70 | 1016.3 |
| 20260506035831 | 56 | 224 | 0.0 | 1.0 | 0.00 | 0.21 | 0.21 | 70 | 1016.2 |
| 20260506035326 | 56 | 150 | 0.0 | 1.0 | 0.00 | 0.21 | 0.21 | 70 | 1016.2 |
| 20260506034816 | 56 | 269 | 0.0 | 1.0 | 0.00 | 0.21 | 0.21 | 69 | 1016.1 |
| 20260506034328 | 56 | 188 | 0.0 | 2.0 | 0.00 | 0.21 | 0.21 | 69 | 1016.2 |
| 20260506033820 | 56 | 160 | 0.0 | 4.0 | 0.00 | 0.21 | 0.21 | 69 | 1016.1 |
| 20260506033330 | 56 | 167 | 1.0 | 4.0 | 0.00 | 0.21 | 0.21 | 68 | 1016.1 |
| 20260506032822 | 56 | 168 | 1.0 | 3.0 | 0.00 | 0.21 | 0.21 | 68 | 1015.9 |
| 20260506032312 | 56 | 123 | 0.0 | 2.0 | 0.00 | 0.21 | 0.21 | 68 | 1015.9 |
| 20260506031825 | 56 | 201 | 1.0 | 3.0 | 0.00 | 0.21 | 0.21 | 68 | 1015.9 |
| 20260506031320 | 56 | 138 | 0.0 | 0.0 | 0.00 | 0.21 | 0.21 | 68 | 1015.8 |
| 20260506030811 | 56 | 192 | 0.0 | 5.0 | 0.00 | 0.21 | 0.21 | 68 | 1015.8 |
| 20260506030323 | 56 | 147 | 1.0 | 5.0 | 0.00 | 0.21 | 0.21 | 67 | 1015.7 |
| 20260506025813 | 57 | 172 | 1.0 | 7.0 | 0.00 | 0.21 | 0.21 | 67 | 1015.5 |
| 20260506025324 | 57 | 212 | 2.0 | 7.0 | 0.00 | 0.21 | 0.21 | 66 | 1015.4 |
| 20260506024814 | 57 | 224 | 2.0 | 7.0 | 0.00 | 0.21 | 0.21 | 66 | 1015.3 |
| 20260506024326 | 57 | 212 | 3.0 | 7.0 | 0.00 | 0.21 | 0.21 | 66 | 1015.2 |
| 20260506023816 | 57 | 233 | 1.0 | 5.0 | 0.00 | 0.21 | 0.21 | 66 | 1015.1 |
| 20260506023328 | 57 | 186 | 0.0 | 7.0 | 0.00 | 0.21 | 0.21 | 66 | 1015.1 |
| 20260506022839 | 57 | 234 | 2.0 | 8.0 | 0.00 | 0.21 | 0.21 | 66 | 1015.0 |
| 20260506022313 | 57 | 216 | 3.0 | 8.0 | 0.00 | 0.21 | 0.21 | 65 | 1014.9 |
| 20260506021846 | 57 | 223 | 0.0 | 5.0 | 0.00 | 0.21 | 0.21 | 66 | 1014.9 |
| 20260506021316 | 57 | 211 | 2.0 | 8.0 | 0.00 | 0.21 | 0.21 | 65 | 1014.8 |
| 20260506020828 | 58 | 214 | 5.0 | 8.0 | 0.00 | 0.21 | 0.21 | 65 | 1014.7 |
| 20260506020318 | 58 | 236 | 2.0 | 8.0 | 0.00 | 0.21 | 0.21 | 65 | 1014.7 |
| 20260506015829 | 58 | 230 | 4.0 | 9.0 | 0.00 | 0.21 | 0.21 | 64 | 1014.6 |
| 20260506015320 | 58 | 225 | 6.0 | 12.0 | 0.00 | 0.21 | 0.21 | 64 | 1014.6 |
| 20260506014852 | 58 | 215 | 5.0 | 12.0 | 0.00 | 0.21 | 0.21 | 64 | 1014.4 |
| 20260506014321 | 58 | 224 | 5.0 | 12.0 | 0.00 | 0.21 | 0.21 | 64 | 1014.4 |
| 20260506013812 | 58 | 220 | 5.0 | 12.0 | 0.00 | 0.21 | 0.21 | 63 | 1014.4 |
| 20260506013323 | 58 | 195 | 5.0 | 9.0 | 0.00 | 0.21 | 0.21 | 62 | 1014.2 |
| 20260506012818 | 58 | 192 | 3.0 | 10.0 | 0.00 | 0.21 | 0.21 | 62 | 1014.1 |
| 20260506012329 | 59 | 240 | 4.0 | 10.0 | 0.00 | 0.21 | 0.21 | 62 | 1014.1 |
| 20260506011820 | 59 | 193 | 5.0 | 9.0 | 0.00 | 0.21 | 0.21 | 62 | 1014.0 |
| 20260506011330 | 59 | 225 | 5.0 | 10.0 | 0.00 | 0.21 | 0.21 | 62 | 1014.1 |
| 20260506010821 | 59 | 188 | 4.0 | 10.0 | 0.00 | 0.21 | 0.21 | 62 | 1014.0 |
| 20260506010311 | 59 | 172 | 4.0 | 9.0 | 0.00 | 0.21 | 0.21 | 61 | 1014.0 |
| 20260506005822 | 59 | 229 | 4.0 | 12.0 | 0.00 | 0.21 | 0.21 | 61 | 1014.0 |
| 20260506005314 | 59 | 216 | 4.0 | 11.0 | 0.00 | 0.21 | 0.21 | 60 | 1014.0 |
| 20260506004827 | 59 | 195 | 7.0 | 11.0 | 0.00 | 0.21 | 0.21 | 59 | 1013.9 |
| 20260506004318 | 60 | 160 | 5.0 | 13.0 | 0.00 | 0.21 | 0.21 | 58 | 1013.9 |
| 20260506003827 | 60 | 215 | 8.0 | 13.0 | 0.00 | 0.21 | 0.21 | 57 | 1013.9 |
| 20260506003322 | 60 | 214 | 3.0 | 13.0 | 0.00 | 0.21 | 0.21 | 57 | 1013.9 |
| 20260506002834 | 61 | 215 | 7.0 | 13.0 | 0.00 | 0.21 | 0.21 | 55 | 1013.8 |
| 20260506002324 | 61 | 278 | 4.0 | 10.0 | 0.00 | 0.21 | 0.21 | 56 | 1013.8 |
| 20260506001816 | 61 | 203 | 4.0 | 10.0 | 0.00 | 0.21 | 0.21 | 54 | 1013.8 |
| 20260506001327 | 61 | 224 | 5.0 | 9.0 | 0.00 | 0.21 | 0.21 | 54 | 1013.7 |
| 20260506000818 | 61 | 200 | 2.0 | 11.0 | 0.00 | 0.21 | 0.21 | 54 | 1013.8 |
| 20260506000330 | 61 | 229 | 4.0 | 11.0 | 0.00 | 0.21 | 0.21 | 54 | 1013.8 |
| 20260505235842 | 62 | 222 | 4.0 | 10.0 | 0.00 | 0.21 | 0.21 | 54 | 1013.8 |
| 20260505235312 | 62 | 198 | 5.0 | 10.0 | 0.00 | 0.21 | 0.21 | 54 | 1013.7 |
| 20260505234828 | 62 | 203 | 5.0 | 11.0 | 0.00 | 0.21 | 0.21 | 53 | 1013.7 |
| 20260505234319 | 63 | 198 | 5.0 | 11.0 | 0.00 | 0.21 | 0.21 | 52 | 1013.7 |
| 20260505233831 | 63 | 195 | 3.0 | 12.0 | 0.00 | 0.21 | 0.21 | 53 | 1013.6 |
| 20260505233341 | 63 | 241 | 7.0 | 12.0 | 0.00 | 0.21 | 0.21 | 52 | 1013.6 |
| 20260505232813 | 63 | 232 | 4.0 | 10.0 | 0.00 | 0.21 | 0.21 | 52 | 1013.5 |
| 20260505232324 | 63 | 214 | 3.0 | 9.0 | 0.00 | 0.21 | 0.21 | 54 | 1013.5 |
| 20260505231816 | 63 | 217 | 4.0 | 9.0 | 0.00 | 0.21 | 0.21 | 52 | 1013.7 |
| 20260505231347 | 63 | 223 | 3.0 | 10.0 | 0.00 | 0.21 | 0.21 | 55 | 1013.7 |
| 20260505230818 | 63 | 214 | 5.0 | 10.0 | 0.00 | 0.21 | 0.21 | 55 | 1013.7 |
| 20260505230312 | 63 | 171 | 4.0 | 9.0 | 0.00 | 0.21 | 0.21 | 55 | 1013.7 |
| 20260505225844 | 62 | 272 | 2.0 | 8.0 | 0.00 | 0.21 | 0.21 | 57 | 1013.8 |
| 20260505225313 | 62 | 235 | 2.0 | 9.0 | 0.00 | 0.21 | 0.21 | 54 | 1013.8 |
| 20260505224825 | 62 | 229 | 3.0 | 9.0 | 0.00 | 0.21 | 0.21 | 54 | 1013.8 |
| 20260505224336 | 62 | 238 | 0.0 | 7.0 | 0.00 | 0.21 | 0.21 | 55 | 1013.8 |
| 20260505223846 | 62 | 202 | 3.0 | 8.0 | 0.00 | 0.21 | 0.21 | 54 | 1014.0 |
| 20260505223317 | 62 | 211 | 4.0 | 8.0 | 0.00 | 0.21 | 0.21 | 54 | 1013.9 |
| 20260505222829 | 63 | 275 | 2.0 | 6.0 | 0.00 | 0.21 | 0.21 | 57 | 1014.0 |
| 20260505222320 | 62 | 186 | 1.0 | 3.0 | 0.00 | 0.21 | 0.21 | 57 | 1014.0 |
| 20260505221834 | 61 | 231 | 0.0 | 6.0 | 0.00 | 0.21 | 0.21 | 58 | 1014.1 |
| 20260505221324 | 61 | 241 | 3.0 | 6.0 | 0.00 | 0.21 | 0.21 | 57 | 1014.2 |
| 20260505220835 | 61 | 256 | 0.0 | 2.0 | 0.00 | 0.21 | 0.21 | 59 | 1014.2 |
| 20260505220330 | 61 | 250 | 1.0 | 6.0 | 0.00 | 0.21 | 0.21 | 60 | 1014.3 |
| 20260505215820 | 61 | 260 | 0.0 | 6.0 | 0.00 | 0.21 | 0.21 | 59 | 1014.4 |
| 20260505215311 | 61 | 246 | 1.0 | 4.0 | 0.00 | 0.21 | 0.21 | 61 | 1014.4 |
| 20260505214843 | 60 | 278 | 3.0 | 4.0 | 0.00 | 0.21 | 0.21 | 59 | 1014.4 |
| 20260505214312 | 60 | 250 | 0.0 | 3.0 | 0.00 | 0.21 | 0.21 | 60 | 1014.4 |
| 20260505213823 | 60 | 272 | 1.0 | 3.0 | 0.00 | 0.21 | 0.21 | 60 | 1014.5 |
| 20260505213315 | 60 | 217 | 1.0 | 2.0 | 0.00 | 0.21 | 0.21 | 60 | 1014.5 |
| 20260505212826 | 60 | 274 | 0.0 | 3.0 | 0.00 | 0.21 | 0.21 | 60 | 1014.4 |
| 20260505212317 | 60 | 299 | 1.0 | 3.0 | 0.00 | 0.21 | 0.21 | 60 | 1014.6 |
| 20260505211813 | 60 | 300 | 1.0 | 2.0 | 0.00 | 0.21 | 0.21 | 60 | 1014.6 |
| 20260505211325 | 60 | 68 | 0.0 | 2.0 | 0.00 | 0.21 | 0.21 | 60 | 1014.6 |
| 20260505210815 | 60 | 310 | 0.0 | 3.0 | 0.00 | 0.21 | 0.21 | 61 | 1014.6 |
| 20260505210348 | 60 | 310 | 1.0 | 4.0 | 0.00 | 0.21 | 0.21 | 61 | 1014.7 |
| 20260505205816 | 60 | 26 | 0.0 | 4.0 | 0.00 | 0.21 | 0.21 | 62 | 1014.6 |
| 20260505205328 | 60 | 32 | 1.0 | 5.0 | 0.00 | 0.21 | 0.21 | 61 | 1014.6 |
| 20260505204819 | 60 | 48 | 1.0 | 5.0 | 0.00 | 0.21 | 0.21 | 63 | 1014.6 |
| 20260505204330 | 60 | 83 | 1.0 | 5.0 | 0.00 | 0.21 | 0.21 | 64 | 1014.6 |
| 20260505203820 | 60 | 51 | 1.0 | 5.0 | 0.00 | 0.21 | 0.21 | 64 | 1014.6 |
| 20260505203312 | 60 | 308 | 1.0 | 5.0 | 0.00 | 0.21 | 0.21 | 65 | 1014.7 |
| 20260505202826 | 60 | 37 | 2.0 | 5.0 | 0.00 | 0.21 | 0.21 | 65 | 1014.6 |
| 20260505202317 | 59 | 39 | 1.0 | 3.0 | 0.00 | 0.21 | 0.21 | 67 | 1014.7 |
| 20260505201829 | 59 | 53 | 0.0 | 3.0 | 0.00 | 0.21 | 0.21 | 68 | 1014.8 |
| 20260505201320 | 58 | 40 | 0.0 | 8.0 | 0.00 | 0.21 | 0.21 | 68 | 1014.8 |
| 20260505200851 | 58 | 353 | 4.0 | 8.0 | 0.00 | 0.21 | 0.21 | 66 | 1014.9 |
| 20260505200322 | 58 | 292 | 3.0 | 6.0 | 0.00 | 0.21 | 0.21 | 68 | 1014.9 |
| 20260505195813 | 59 | 278 | 3.0 | 5.0 | 0.00 | 0.21 | 0.21 | 68 | 1014.9 |
| 20260505195325 | 59 | 318 | 2.0 | 5.0 | 0.00 | 0.21 | 0.21 | 68 | 1014.9 |
| 20260505194815 | 59 | 305 | 1.0 | 8.0 | 0.00 | 0.21 | 0.21 | 70 | 1014.8 |
| 20260505194312 | 59 | 11 | 3.0 | 8.0 | 0.00 | 0.21 | 0.21 | 69 | 1015.0 |
| 20260505193823 | 59 | 256 | 2.0 | 5.0 | 0.00 | 0.21 | 0.21 | 69 | 1015.1 |